Regional Weather Roundup
Issued by NWS

Home | Current Version | Previous Version | Text Only | Print | Product List | Glossary Off
Versions: 1 2 3 4 5 6 7 8 9 10 11 12 13 14 15 16 17 18 19 20 21 22 23 24 25 26 27 28 29 30 31 32 33 34 35 36 37 38 39 40 41 42 43 44 45 46 47 48 49 50

000
ASUS43 KDMX 211417
RWRIA

DSMRWRIA 000
TTAA00 KDVN 211410

WEATHER ROUNDUP FOR IOWA
NATIONAL WEATHER SERVICE DES MOINES IA
  ISSUED BY NWS QUAD CITIES IA IL
800 AM CST TUE FEB 21 2017

NOTE: "FAIR" INDICATES FEW OR NO CLOUDS BELOW 12,000 FEET WITH NO
SIGNIFICANT WEATHER AND/OR OBSTRUCTIONS TO VISIBILITY.

* - THESE STATIONS ARE NOT NWS STATIONS...THUS NOT UNDER NWS
QUALITY CONTROL.  THEY ALSO DO NOT REPORT WEATHER SUCH
AS PRECIPITATION OR FOG.

IAZ001>003-012>014-020>022-031>034-043>046-211500-
   NORTHWEST IOWA

CITY           SKY/WX    TMP DP  RH WIND       PRES   REMARKS
CARROLL *      CLEAR     37  37 100 CALM      29.98R
CHEROKEE *     SUNNY     30  30 100 S3        29.94S
DENNISON *     MIX PCPN  32  32 100 CALM      29.96F VSB 1/4
LE MARS *      CLEAR     36  36 100 S7        29.93S WCI  30
SHELDON *      CLEAR     37  37 100 S7        29.89F WCI  32
SIOUX CITY     CLEAR     34  32  92 E9        29.94F WCI  27
SPENCER        CLEAR     36  34  92 S10       29.91F WCI  28
STORM LAKE *   CLEAR     36  36 100 S12       29.93F WCI  27
$$

IAZ055>058-069>071-079>083-090>094-211500-
   SOUTHWEST IOWA

CITY           SKY/WX    TMP DP  RH WIND       PRES   REMARKS
ATLANTIC *     FOG       30  30 100 CALM      30.01R VSB 3/4
CLARINDA *     FOG       32  32 100 CALM      30.02R VSB<1/4
COUNCIL BLFS * FOG       34  34 100 S6        30.00S VSB<1/4 WCI  29
CRESTON *      CLEAR     37  37 100 CALM      29.99R
HARLAN *       FOG       30  30 100 CALM      30.04R VSB<1/4
LAMONI         FOG       42  40  92 N5        29.98R VSB<1/4 WCI  39
RED OAK *      FOG       32  32 100 CALM      30.02R VSB<1/4
SHENANDOAH *   FOG       30  30 100 CALM      30.03R VSB<1/4
$$

IAZ047>049-059>061-072>074-084-211500-
   CENTRAL IOWA

CITY           SKY/WX    TMP DP  RH WIND       PRES   REMARKS
AMES           FOG       31  31 100 SE3       29.96F VSB<1/4
ANKENY *       FOG       32  32 100 CALM      29.99R VSB<1/4
BOONE *        FOG       36  36 100 SW7       29.96R VSB 1   WCI  30
CHARITON *     FOG       37  37 100 CALM      29.99R VSB<1/4
DES MOINES     PTCLDY    41  40  96 CALM      29.98R FOG
GRINNELL *     FOG       32  32 100 NW5       29.98S VSB<1/4 WCI  27
KNOXVILLE *    FOG       36  36 100 W3        29.97R VSB<1/4
MARSHALLTOWN   FOG       30  30 100 CALM      29.97R VSB<1/4
NEWTON *       FOG       34  34 100 W7        29.97R VSB<1/4 WCI  28
PELLA *        FOG       36  36  98 CALM      29.99R VSB<1/4
PERRY *        FAIR      35  34  98 W5        29.98R FOG     WCI  31
$$

IAZ004>006-015-016-023>025-035-036-211500-
   NORTH CENTRAL IOWA

CITY           SKY/WX    TMP DP  RH WIND       PRES   REMARKS
ALGONA *       CLEAR     34  34 100 S6        29.93S FOG     WCI  29
CLARION *      FOG       32  32 100 CALM      29.96R VSB<1/4
ESTHERVILLE    CLEAR     37  36  96 S9        29.89F WCI  30
FORT DODGE *   CLEAR     34  32  93 S3        29.96F
MASON CITY     CLEAR     31  31 100 SW5       29.96R FOG     WCI  26
FOREST CITY *  FAIR      32  32 100 CALM      29.94S FOG
IOWA FALLS *   FOG       35  35  98 S6        29.96S VSB 1   WCI  30
$$

IAZ007>011-017>019-026>030-037>042-050>054-066-211500-
   NORTHEAST IOWA

CITY           SKY/WX    TMP DP  RH WIND       PRES   REMARKS
CEDAR RAPIDS   MOSUNNY   34  34 100 CALM      29.94F
CHARLES CITY * FOG       32  32 100 S6        29.96R VSB<1/4 WCI  26
CLINTON *      FOG       43  43 100 NW5       29.96S VSB 1
DECORAH *      FOG       34  34 100 SW3       29.93R VSB<1/4
DUBUQUE        CLOUDY    40  37  89 N8        29.95R WCI  34
MONTICELLO *   FOG       36  36 100 N3        29.95F VSB 1/4
OELWEIN *      FOG       32  32 100 CALM      29.97R VSB<1/4
WATERLOO       FOG       29  28  96 CALM      29.97R VSB 1/4
$$

IAZ064-065-067-068-078-211500-
   EAST CENTRAL IOWA

CITY           SKY/WX    TMP DP  RH WIND       PRES   REMARKS
DAVENPORT      MOSUNNY   43  42  97 N5        29.96R FOG
IOWA CITY      CLOUDY    41  39  93 CALM      29.98R FOG
MUSCATINE *    MOSUNNY   45  41  87 CALM      29.96S
QUAD CITIES    CLOUDY    47  44  90 CALM      29.95R FOG
$$

IAZ062-063-075>077-085>089-095>099-211500-
   SOUTHEAST IOWA

CITY           SKY/WX    TMP DP  RH WIND       PRES   REMARKS
BURLINGTON     CLOUDY    50  47  89 NE3       29.95R
FAIRFIELD *    CLOUDY    41  41 100 CALM      29.95S FOG
KEOKUK *       CLOUDY    50  46  87 CALM      29.95R
OTTUMWA        FOG       39  39 100 NW5       29.97R VSB 1/4 WCI  36
WASHINGTON *   MOSUNNY   41  41 100 CALM      29.97R FOG
$$

ABBREVIATIONS USED IN REMARKS
   TC - TEMPERATURES IN CELSIUS
  WCI - WIND CHILL INDEX
   HX - HEAT INDEX
  VSB - VISIBILITY
$$



USA.gov is the U.S. government's official web portal to all federal, state and local government web resources and services.